CW5040 Weather Reports


time (UTC)temp
C
wind
direction
speed
KPH
gust
KPH
rain 1hr
cm
rain 24hr
cm
rain mn
cm
humidity
%
barometer
mb
20260504234833 17 18 0.0 0.0 0.00 0.00 0.00 30 1007.6
20260504234329 17 18 0.0 0.0 0.00 0.00 0.00 30 1007.6
20260504233832 17 18 0.0 0.0 0.00 0.00 0.00 30 1007.6
20260504233332 17 18 0.0 0.0 0.00 0.00 0.00 30 1007.6
20260504232832 17 18 0.0 0.0 0.00 0.00 0.00 29 1007.6
20260504232330 17 18 0.0 0.0 0.00 0.00 0.00 28 1007.6
20260504231830 17 18 0.0 0.0 0.00 0.00 0.00 28 1007.0
20260504231350 17 18 0.0 0.0 0.00 0.00 0.00 28 1007.0
20260504230851 17 18 0.0 0.0 0.00 0.00 0.00 28 1007.0
20260504230347 18 18 0.0 0.0 0.00 0.00 0.00 29 1007.0
20260504225823 18 18 0.0 0.0 0.00 0.00 0.00 30 1007.0
20260504225343 18 18 0.0 0.0 0.00 0.00 0.00 29 1007.0
20260504224826 18 18 0.0 0.0 0.00 0.00 0.00 29 1007.0
20260504224329 18 18 0.0 0.0 0.00 0.00 0.00 28 1007.0
20260504223829 18 18 0.0 0.0 0.00 0.00 0.00 27 1007.0
20260504223332 18 18 0.0 0.0 0.00 0.00 0.00 27 1007.2
20260504222835 18 18 0.0 0.0 0.00 0.00 0.00 27 1007.2
20260504222355 18 18 0.0 0.0 0.00 0.00 0.00 27 1007.2
20260504221853 18 18 0.0 0.0 0.00 0.00 0.00 27 1007.3
20260504221353 18 18 0.0 0.0 0.00 0.00 0.00 27 1007.3
20260504220853 18 18 0.0 0.0 0.00 0.00 0.00 27 1007.3
20260504220336 18 18 0.0 0.0 0.00 0.00 0.00 27 1007.5
20260504215841 18 18 0.0 0.0 0.00 0.00 0.00 27 1007.5
20260504215341 19 18 0.0 0.0 0.00 0.00 0.00 26 1007.5
20260504214823 18 18 0.0 0.0 0.00 0.00 0.00 26 1007.4
20260504214343 18 18 0.0 0.0 0.00 0.00 0.00 27 1007.4
20260504213827 18 18 0.0 0.0 0.00 0.00 0.00 27 1007.4
20260504213328 18 18 0.0 0.0 0.00 0.00 0.00 27 1007.4
20260504212831 18 18 0.0 0.0 0.00 0.00 0.00 28 1007.4
20260504212330 18 18 0.0 0.0 0.00 0.00 0.00 28 1007.4
20260504211838 18 18 0.0 0.0 0.00 0.00 0.00 27 1007.7
20260504211354 18 18 0.0 0.0 0.00 0.00 0.00 27 1007.7
20260504210847 18 18 0.0 0.0 0.00 0.00 0.00 27 1007.7
20260504210349 18 18 0.0 0.0 0.00 0.00 0.00 26 1007.7
20260504205828 18 18 0.0 0.0 0.00 0.00 0.00 26 1007.7
20260504205328 18 18 0.0 0.0 0.00 0.00 0.00 25 1007.7
20260504204831 18 18 0.0 0.0 0.00 0.00 0.00 25 1007.6
20260504204351 19 18 0.0 0.0 0.00 0.00 0.00 24 1007.6
20260504203902 19 18 0.0 0.0 0.00 0.00 0.00 24 1007.6
20260504203341 19 18 0.0 0.0 0.00 0.00 0.00 23 1007.4
20260504202901 20 18 0.0 0.0 0.00 0.00 0.00 23 1007.4
20260504202356 20 18 0.0 0.0 0.00 0.00 0.00 23 1007.4
20260504201823 20 18 0.0 0.0 0.00 0.00 0.00 23 1007.0
20260504201325 20 18 0.0 0.0 0.00 0.00 0.00 22 1007.0
20260504200856 20 18 0.0 0.0 0.00 0.00 0.00 22 1007.0
20260504200342 20 18 0.0 0.0 0.00 0.00 0.00 22 1007.0
20260504195828 20 18 0.0 0.0 0.00 0.00 0.00 22 1007.0
20260504195345 20 18 0.0 0.0 0.00 0.00 0.00 21 1007.0
20260504194848 20 18 0.0 0.0 0.00 0.00 0.00 21 1006.9
20260504194343 21 18 0.0 0.0 0.00 0.00 0.00 20 1006.9
20260504193840 21 18 0.0 0.0 0.00 0.00 0.00 19 1006.9
20260504193342 21 18 0.0 0.0 0.00 0.00 0.00 19 1006.8
20260504192844 21 18 0.0 0.0 0.00 0.00 0.00 18 1006.8
20260504192343 21 18 0.0 0.0 0.00 0.00 0.00 18 1006.8
20260504191826 21 18 0.0 0.0 0.00 0.00 0.00 18 1006.8
20260504191327 21 18 0.0 0.0 0.00 0.00 0.00 18 1006.8
20260504190850 21 18 0.0 0.0 0.00 0.00 0.00 18 1006.8
20260504190342 21 18 0.0 0.0 0.00 0.00 0.00 18 1006.6
20260504185848 21 18 0.0 0.0 0.00 0.00 0.00 18 1006.6
20260504185345 21 18 0.0 0.0 0.00 0.00 0.00 19 1006.6
20260504184840 20 18 0.0 0.0 0.00 0.00 0.00 19 1006.2
20260504184341 21 18 0.0 0.0 0.00 0.00 0.00 19 1006.2
20260504183837 21 18 0.0 0.0 0.00 0.00 0.00 18 1006.2
20260504183408 21 18 0.0 0.0 0.00 0.00 0.00 17 1006.0
20260504182848 22 18 0.0 0.0 0.00 0.00 0.00 13 1006.0
20260504182331 23 18 0.0 0.0 0.00 0.00 0.00 12 1006.0
20260504181835 23 18 0.0 0.0 0.00 0.00 0.00 12 1006.3
20260504181337 23 18 0.0 0.0 0.00 0.00 0.00 13 1006.3
20260504180901 23 18 0.0 0.0 0.00 0.00 0.00 13 1006.3
20260504180418 22 18 0.0 0.0 0.00 0.00 0.00 13 1006.3
20260504160355 20 18 0.0 0.0 0.00 0.00 0.00 17 1007.0
20260504150843 18 18 0.0 0.0 0.00 0.00 0.00 24 1007.6
20260504150322 17 18 0.0 0.0 0.00 0.00 0.00 26 1007.8
20260504140827 12 18 0.0 0.0 0.00 0.00 0.00 38 1007.7
20260504140330 12 18 0.0 0.0 0.00 0.00 0.00 39 1007.8
20260504130326 5 18 0.0 0.0 0.00 0.00 0.00 62 1007.7
20260504110332 1 18 0.0 0.0 0.00 0.00 0.00 68 1007.7
20260504100347 2 18 0.0 0.0 0.00 0.00 0.00 68 1008.0
20260504081838 5 18 0.0 0.0 0.00 0.00 0.00 62 1009.1
20260504081322 5 18 0.0 0.0 0.00 0.00 0.00 61 1009.1
20260504080835 5 18 0.0 0.0 0.00 0.00 0.00 61 1009.1
20260504080350 5 18 0.0 0.0 0.00 0.00 0.00 61 1009.2
20260504070347 5 18 0.0 0.0 0.00 0.00 0.00 58 1009.5
20260504050351 8 18 0.0 0.0 0.00 0.00 0.00 46 1010.0
20260504045845 9 18 0.0 0.0 0.00 0.00 0.00 44 1010.0
20260504045348 10 18 0.0 0.0 0.00 0.00 0.00 42 1010.0
20260504044847 10 18 0.0 0.0 0.00 0.00 0.00 41 1009.9
20260504044343 10 18 0.0 0.0 0.00 0.00 0.00 42 1009.9
20260504043836 10 18 0.0 0.0 0.00 0.00 0.00 43 1009.9
20260504043349 10 18 0.0 0.0 0.00 0.00 0.00 42 1010.0
20260504042902 10 18 0.0 0.0 0.00 0.00 0.00 41 1010.0
20260504042337 11 18 0.0 0.0 0.00 0.00 0.00 40 1010.0
20260504041900 11 18 0.0 0.0 0.00 0.00 0.00 40 1010.2
20260504041320 11 18 0.0 0.0 0.00 0.00 0.00 39 1010.2
20260504040855 11 18 0.0 0.0 0.00 0.00 0.00 39 1010.2
20260504040340 12 18 0.0 0.0 0.00 0.00 0.00 38 1010.2
20260504035828 12 18 0.0 0.0 0.00 0.00 0.00 37 1010.2
20260504035343 13 18 0.0 0.0 0.00 0.00 0.00 36 1010.2
20260504034911 13 18 0.0 0.0 0.00 0.00 0.00 36 1010.4
20260504034344 13 18 0.0 0.0 0.00 0.00 0.00 35 1010.4
20260504033908 13 18 0.0 0.0 0.00 0.00 0.00 35 1010.4
20260504033334 13 18 0.0 0.0 0.00 0.00 0.00 35 1010.2
20260504032833 13 18 0.0 0.0 0.00 0.00 0.00 34 1010.2
20260504032355 14 18 0.0 0.0 0.00 0.00 0.00 34 1010.2
20260504031846 14 18 0.0 0.0 0.00 0.00 0.00 34 1010.0
20260504031402 14 18 0.0 0.0 0.00 0.00 0.00 33 1010.0
20260504030834 14 18 0.0 0.0 0.00 0.00 0.00 32 1010.0
20260504030334 15 18 0.0 0.0 0.00 0.00 0.00 31 1010.2
20260504025832 15 18 0.0 0.0 0.00 0.00 0.00 31 1010.2
20260504025344 15 18 0.0 0.0 0.00 0.00 0.00 29 1010.2
20260504024859 16 18 0.0 0.0 0.00 0.00 0.00 29 1010.0
20260504024340 16 18 0.0 0.0 0.00 0.00 0.00 29 1010.0
20260504023844 16 18 0.0 0.0 0.00 0.00 0.00 29 1010.0
20260504023353 16 18 0.0 0.0 0.00 0.00 0.00 28 1010.0
20260504022849 16 18 0.0 0.0 0.00 0.00 0.00 27 1010.0
20260504022341 17 18 0.0 0.0 0.00 0.00 0.00 26 1010.0
20260504021829 18 18 0.0 0.0 0.00 0.00 0.00 21 1009.4
20260504021334 20 18 0.0 0.0 0.00 0.00 0.00 14 1009.4
20260504020836 20 18 0.0 0.0 0.00 0.00 0.00 13 1009.4
20260504020354 20 18 0.0 0.0 0.00 0.00 0.00 13 1009.4
20260504015909 20 18 0.0 0.0 0.00 0.00 0.00 13 1009.4
20260504015320 20 18 0.0 0.0 0.00 0.00 0.00 13 1009.4
20260504014857 20 18 0.0 0.0 0.00 0.00 0.00 13 1008.9
20260504014354 20 18 0.0 0.0 0.00 0.00 0.00 12 1008.9
20260504013826 20 18 0.0 0.0 0.00 0.00 0.00 11 1008.9
20260504013358 20 18 0.0 0.0 0.00 0.00 0.00 13 1008.8
20260504012834 20 18 0.0 0.0 0.00 0.00 0.00 13 1008.8
20260504012334 20 18 0.0 0.0 0.00 0.00 0.00 13 1008.8
20260504011829 20 18 0.0 0.0 0.00 0.00 0.00 12 1008.8
20260504011409 20 18 0.0 0.0 0.00 0.00 0.00 13 1008.8
20260504010840 20 18 0.0 0.0 0.00 0.00 0.00 13 1008.8
20260504010334 20 18 0.0 0.0 0.00 0.00 0.00 13 1008.8
20260504005834 20 18 0.0 0.0 0.00 0.00 0.00 13 1008.8
20260504005337 21 18 0.0 0.0 0.00 0.00 0.00 13 1008.8
20260504004831 21 18 0.0 0.0 0.00 0.00 0.00 13 1008.9
20260504004324 21 18 0.0 0.0 0.00 0.00 0.00 12 1008.9
20260504003852 21 18 0.0 0.0 0.00 0.00 0.00 13 1008.9
20260504003327 21 18 0.0 0.0 0.00 0.00 0.00 12 1009.0
20260504002841 21 18 0.0 0.0 0.00 0.00 0.00 13 1009.0
20260504002326 21 18 0.0 0.0 0.00 0.00 0.00 13 1009.0
20260504001839 21 18 0.0 0.0 0.00 0.00 0.00 14 1009.4
20260504001401 21 18 0.0 0.0 0.00 0.00 0.00 14 1009.4
20260504000830 21 18 0.0 0.0 0.00 0.00 0.00 14 1009.4
20260504000355 21 18 0.0 0.0 0.00 0.00 0.00 14 1009.5
20260503235829 21 18 0.0 0.0 0.00 0.00 0.00 14 1009.5
20260503235338 21 18 0.0 0.0 0.00 0.00 0.00 15 1009.5